TimePDT,TemperatureF,Dew PointF,Humidity,Sea Level PressureIn,VisibilityMPH,Wind Direction,Wind SpeedMPH,Gust SpeedMPH,PrecipitationIn,Events,Conditions,WindDirDegrees,DateUTC
12:56 AM,65.8,28.0,24,29.84,10.0,South,9.2,-,N/A,,Clear,180,2013-10-01 07:56:00
1:56 AM,70.9,28.0,20,29.84,10.0,South,12.7,-,N/A,,Clear,170,2013-10-01 08:56:00
2:56 AM,66.9,27.1,22,29.83,10.0,SSW,12.7,-,N/A,,Clear,210,2013-10-01 09:56:00
3:56 AM,65.8,27.1,23,29.84,10.0,SSW,12.7,-,N/A,,Clear,210,2013-10-01 10:56:00
4:56 AM,64.9,27.1,24,29.85,10.0,South,10.4,-,N/A,,Clear,190,2013-10-01 11:56:00
5:56 AM,64.9,27.1,24,29.86,10.0,SW,5.8,-,N/A,,Clear,220,2013-10-01 12:56:00
6:56 AM,61.0,27.1,28,29.89,10.0,South,6.9,-,N/A,,Clear,170,2013-10-01 13:56:00
7:56 AM,64.9,32.0,29,29.90,10.0,South,5.8,-,N/A,,Clear,170,2013-10-01 14:56:00
8:56 AM,73.9,32.9,22,29.90,10.0,Calm,Calm,-,N/A,,Clear,0,2013-10-01 15:56:00
9:56 AM,77.0,32.9,20,29.91,10.0,North,6.9,-,N/A,,Clear,10,2013-10-01 16:56:00
10:56 AM,79.9,34.0,19,29.90,10.0,NE,6.9,-,N/A,,Clear,50,2013-10-01 17:56:00
11:56 AM,84.9,32.0,15,29.88,10.0,NNE,4.6,-,0.00,,Clear,30,2013-10-01 18:56:00
12:56 PM,88.0,27.1,11,29.85,10.0,SSW,9.2,-,N/A,,Clear,200,2013-10-01 19:56:00
1:56 PM,90.0,27.1,10,29.81,10.0,WSW,8.1,-,N/A,,Clear,240,2013-10-01 20:56:00
2:56 PM,90.9,27.1,10,29.79,10.0,SW,16.1,21.9,N/A,,Clear,230,2013-10-01 21:56:00
3:56 PM,90.9,25.2,9,29.77,10.0,Variable,6.9,-,N/A,,Clear,0,2013-10-01 22:56:00
4:56 PM,90.0,29.1,11,29.76,10.0,WSW,5.8,-,N/A,,Clear,240,2013-10-01 23:56:00
5:56 PM,88.0,31.1,13,29.77,10.0,WSW,11.5,-,N/A,,Clear,240,2013-10-02 00:56:00
6:56 PM,82.9,30.0,15,29.79,10.0,SSW,10.4,-,N/A,,Clear,210,2013-10-02 01:56:00
7:56 PM,79.0,30.0,17,29.81,10.0,South,8.1,-,N/A,,Clear,170,2013-10-02 02:56:00
8:56 PM,77.0,27.1,16,29.81,10.0,SSE,9.2,-,N/A,,Clear,160,2013-10-02 03:56:00
9:56 PM,74.8,27.1,17,29.82,10.0,SSW,10.4,-,N/A,,Clear,210,2013-10-02 04:56:00
10:56 PM,73.9,27.1,18,29.82,10.0,South,12.7,-,N/A,,Clear,190,2013-10-02 05:56:00
11:56 PM,72.9,28.0,19,29.81,10.0,South,12.7,-,N/A,,Clear,180,2013-10-02 06:56:00